• In Romania
  • List of Countries
  • For 7 days
  • Water Temperature
  • Satellite Maps
  • Weather Map
  • Weather Widgets
  • user-avatar
    Login

    Hourly Weather Canillo

    Today, 20 November, Monday

    Time Temperature Precipitation Wind Pressure Humidity
    00:00 -1°C° 0 mm 2 mps 620 mmHg 59%
    01:00 -1°C° 0 mm 2 mps 620 mmHg 59%
    02:00 -1°C° 0 mm 2 mps 620 mmHg 60%
    03:00 -1°C° 0 mm 2 mps 620 mmHg 60%
    04:00 -1°C° 0 mm 2 mps 620 mmHg 60%
    05:00 -1°C° 0 mm 2 mps 620 mmHg 59%
    06:00 -2°C° 0 mm 2 mps 620 mmHg 60%
    07:00 +1°C° 0 mm 2 mps 621 mmHg 56%
    08:00 +4°C° 0 mm 1 mps 622 mmHg 52%
    09:00 +6°C° 0 mm 1 mps 622 mmHg 48%
    10:00 +7°C° 0 mm 1 mps 623 mmHg 45%
    11:00 +9°C° 0 mm 1 mps 624 mmHg 41%
    12:00 +11°C° 0 mm 1 mps 624 mmHg 38%
    13:00 +10°C° 0 mm 1 mps 624 mmHg 41%
    14:00 +9°C° 0 mm 1 mps 623 mmHg 45%
    15:00 +9°C° 0 mm 1 mps 622 mmHg 48%
    16:00 +7°C° 0 mm 1 mps 622 mmHg 54%
    17:00 +5°C° 0 mm 1 mps 621 mmHg 60%
    18:00 +3°C° 0 mm 1 mps 620 mmHg 65%
    19:00 +3°C° 0 mm 1 mps 620 mmHg 63%
    20:00 +3°C° 0 mm 1 mps 620 mmHg 62%
    21:00 +3°C° 0 mm 1 mps 620 mmHg 60%
    22:00 +2°C° 0 mm 1 mps 620 mmHg 58%
    23:00 +2°C° 0 mm 1 mps 620 mmHg 56%

    Tomorrow, 21 November, Tuesday

    Time Temperature Precipitation Wind Pressure Humidity
    00:00 +2°C° 0 mm 1 mps 620 mmHg 54%
    01:00 +2°C° 0 mm 1 mps 620 mmHg 54%
    02:00 +2°C° 0 mm 1 mps 620 mmHg 53%
    03:00 +2°C° 0 mm 1 mps 619 mmHg 52%
    04:00 +2°C° 0 mm 1 mps 619 mmHg 51%
    05:00 +2°C° 0 mm 1 mps 619 mmHg 51%
    06:00 +2°C° 0 mm 1 mps 619 mmHg 50%
    07:00 +4°C° 0 mm 1 mps 620 mmHg 46%
    08:00 +6°C° 0 mm 1 mps 621 mmHg 43%
    09:00 +7°C° 0 mm 0 mps 622 mmHg 39%
    10:00 +9°C° 0 mm 1 mps 622 mmHg 36%
    11:00 +11°C° 0 mm 1 mps 623 mmHg 33%
    12:00 +12°C° 0 mm 1 mps 623 mmHg 29%
    13:00 +11°C° 0 mm 1 mps 622 mmHg 34%
    14:00 +11°C° 0 mm 1 mps 622 mmHg 38%
    15:00 +10°C° 0 mm 1 mps 621 mmHg 43%
    16:00 +8°C° 0 mm 1 mps 620 mmHg 47%
    17:00 +6°C° 0 mm 1 mps 619 mmHg 52%
    18:00 +4°C° 0 mm 1 mps 618 mmHg 57%
    19:00 +3°C° 0 mm 1 mps 618 mmHg 57%
    20:00 +3°C° 0 mm 1 mps 618 mmHg 56%
    21:00 +3°C° 0 mm 1 mps 618 mmHg 56%
    22:00 +3°C° 0 mm 1 mps 618 mmHg 55%
    23:00 +3°C° 0 mm 1 mps 618 mmHg 54%

    Day after tomorrow, 22 November, Wednesday

    Time Temperature Precipitation Wind Pressure Humidity
    00:00 +3°C° 0 mm 1 mps 618 mmHg 53%
    01:00 +2°C° 0 mm 1 mps 617 mmHg 52%
    02:00 +2°C° 0 mm 1 mps 617 mmHg 51%
    03:00 +2°C° 0 mm 1 mps 616 mmHg 49%
    04:00 +2°C° 0 mm 1 mps 616 mmHg 47%
    05:00 +2°C° 0 mm 1 mps 616 mmHg 45%
    06:00 +2°C° 0 mm 1 mps 616 mmHg 44%
    07:00 +2°C° 0 mm 2 mps 617 mmHg 42%
    08:00 +4°C° 0 mm 2 mps 617 mmHg 40%
    09:00 +6°C° 0 mm 2 mps 618 mmHg 39%
    10:00 +7°C° 0 mm 2 mps 619 mmHg 36%
    11:00 +9°C° 0 mm 2 mps 619 mmHg 34%
    12:00 +10°C° 0 mm 2 mps 619 mmHg 32%
    13:00 +9°C° 0 mm 2 mps 619 mmHg 35%
    14:00 +9°C° 0 mm 2 mps 618 mmHg 38%
    15:00 +8°C° 0 mm 2 mps 618 mmHg 41%
    16:00 +6°C° 0 mm 2 mps 617 mmHg 44%
    17:00 +5°C° 0 mm 1 mps 617 mmHg 47%
    18:00 +3°C° 0 mm 1 mps 616 mmHg 50%
    19:00 +3°C° 0 mm 1 mps 616 mmHg 47%
    20:00 +3°C° 0 mm 1 mps 616 mmHg 44%
    21:00 +2°C° 0 mm 2 mps 616 mmHg 41%
    22:00 +2°C° 0 mm 2 mps 616 mmHg 42%
    23:00 +2°C° 0 mm 2 mps 616 mmHg 42%

    23 November, Thursday

    Time Temperature Precipitation Wind Pressure Humidity
    00:00 +2°C° 0 mm 2 mps 616 mmHg 43%
    01:00 +2°C° 0 mm 2 mps 616 mmHg 46%
    02:00 +3°C° 0 mm 1 mps 616 mmHg 49%
    03:00 +3°C° 0 mm 1 mps 616 mmHg 52%
    04:00 +3°C° 0 mm 1 mps 617 mmHg 54%
    05:00 +3°C° 0 mm 1 mps 617 mmHg 55%
    06:00 +3°C° 0 mm 1 mps 617 mmHg 57%
    07:00 +4°C° 0 mm 1 mps 618 mmHg 55%
    08:00 +6°C° 0 mm 1 mps 619 mmHg 54%
    09:00 +7°C° 0 mm 1 mps 620 mmHg 53%
    10:00 +9°C° 0 mm 1 mps 621 mmHg 51%
    11:00 +9°C° 0 mm 2 mps 621 mmHg 49%
    12:00 +10°C° 0 mm 2 mps 622 mmHg 47%
    13:00 +10°C° 0 mm 2 mps 621 mmHg 50%
    14:00 +9°C° 0 mm 2 mps 621 mmHg 54%
    15:00 +9°C° 0 mm 2 mps 621 mmHg 57%
    16:00 +7°C° 0 mm 2 mps 620 mmHg 62%
    17:00 +6°C° 0 mm 1 mps 620 mmHg 68%
    18:00 +4°C° 0 mm 1 mps 619 mmHg 73%
    19:00 +4°C° 0 mm 1 mps 619 mmHg 72%
    20:00 +4°C° 0 mm 1 mps 620 mmHg 71%
    21:00 +4°C° 0 mm 1 mps 620 mmHg 71%
    22:00 +4°C° 0 mm 1 mps 620 mmHg 70%
    23:00 +4°C° 0 mm 1 mps 620 mmHg 70%

    24 November, Friday

    Time Temperature Precipitation Wind Pressure Humidity
    00:00 +4°C° 0 mm 1 mps 620 mmHg 70%
    01:00 +4°C° 0 mm 1 mps 620 mmHg 69%
    02:00 +4°C° 0 mm 1 mps 620 mmHg 68%
    03:00 +4°C° 0 mm 1 mps 619 mmHg 66%
    04:00 +4°C° 0 mm 1 mps 619 mmHg 65%
    05:00 +3°C° 0 mm 1 mps 619 mmHg 63%
    06:00 +2°C° 0 mm 2 mps 619 mmHg 62%
    07:00 +4°C° 0 mm 2 mps 620 mmHg 58%
    08:00 +5°C° 0 mm 2 mps 621 mmHg 53%
    09:00 +7°C° 0 mm 2 mps 622 mmHg 49%
    10:00 +8°C° 0 mm 2 mps 622 mmHg 45%
    11:00 +10°C° 0 mm 3 mps 623 mmHg 42%
    12:00 +11°C° 0 mm 3 mps 623 mmHg 38%
    13:00 +10°C° 0 mm 3 mps 622 mmHg 41%
    14:00 +10°C° 0 mm 2 mps 622 mmHg 43%
    15:00 +9°C° 0 mm 2 mps 621 mmHg 46%
    16:00 +7°C° 0 mm 2 mps 621 mmHg 49%
    17:00 +6°C° 0 mm 2 mps 620 mmHg 52%
    18:00 +4°C° 0 mm 2 mps 619 mmHg 56%
    19:00 +4°C° 0 mm 2 mps 619 mmHg 57%
    20:00 +3°C° 0 mm 2 mps 619 mmHg 58%
    21:00 +3°C° 0 mm 2 mps 619 mmHg 59%
    22:00 +3°C° 0 mm 2 mps 619 mmHg 58%
    23:00 +3°C° 0 mm 2 mps 619 mmHg 58%

    25 November, Saturday

    Time Temperature Precipitation Wind Pressure Humidity
    00:00 +3°C° 0 mm 2 mps 619 mmHg 58%
    01:00 +3°C° 0 mm 2 mps 619 mmHg 58%
    02:00 +2°C° 0 mm 2 mps 619 mmHg 58%
    03:00 +2°C° 0 mm 2 mps 619 mmHg 57%
    04:00 +3°C° 0 mm 1 mps 619 mmHg 56%
    05:00 +3°C° 0 mm 1 mps 619 mmHg 54%
    06:00 +3°C° 0 mm 1 mps 619 mmHg 52%
    07:00 +4°C° 0 mm 1 mps 620 mmHg 49%
    08:00 +6°C° 0 mm 1 mps 621 mmHg 46%
    09:00 +7°C° 0 mm 1 mps 621 mmHg 42%
    10:00 +8°C° 0 mm 1 mps 622 mmHg 41%
    11:00 +9°C° 0 mm 1 mps 622 mmHg 41%
    12:00 +10°C° 0 mm 1 mps 622 mmHg 40%
    13:00 +9°C° 0.1 mm 1 mps 622 mmHg 45%
    14:00 +9°C° 0.1 mm 1 mps 622 mmHg 50%
    15:00 +8°C° 0.1 mm 1 mps 621 mmHg 55%
    16:00 +7°C° 0.2 mm 1 mps 621 mmHg 61%
    17:00 +5°C° 0.2 mm 0 mps 621 mmHg 66%
    18:00 +4°C° 0.2 mm 0 mps 621 mmHg 72%
    19:00 +3°C° 0.1 mm 0 mps 621 mmHg 73%
    20:00 +3°C° 0.1 mm 0 mps 621 mmHg 74%
    21:00 +4°C° 0.1 mm 1 mps 621 mmHg 74%
    22:00 +4°C° 0 mm 1 mps 621 mmHg 76%
    23:00 +3°C° 0 mm 1 mps 621 mmHg 78%
    Show more